Regional Weather Roundup
Issued by NWS Wakefield, VA

Home | Current Version | Previous Version | Graphics & Text | Print | Product List | Glossary On
Versions: 1 2 3 4 5 6 7 8 9 10 11 12 13 14 15 16 17 18 19 20 21 22 23 24 25 26 27 28 29 30 31 32 33 34 35 36 37 38 39 40 41 42 43 44 45 46 47 48 49
050
ASUS41 KAKQ 071115
RWRAKQ

REGIONAL WEATHER ROUNDUP
NATIONAL WEATHER SERVICE WAKEFIELD VA
600 AM EST SUN FEB 07 2016

Note: "fair" indicates few or no clouds below 12,000 feet with no
significant weather and/or obstructions to visibility. * = Denotes
station may not report precipitation (e.g., rain,snow,etc.),
thunder or fog.

VAZ042-051-052>054-056-071200-
NORTHERN VIRGINIA

CITY           SKY/WX    TMP DP  RH WIND       PRES   REMARKS
WASH NATIONAL  MOCLDY    32  26  78 CALM      30.19F
DULLES         FAIR      25  21  85 CALM      30.19F
FORT BELVOIR   FAIR      25  23  91 NW2       30.18F
QUANTICO       FAIR      30  25  81 NW3       30.20F
FREDERICKSBRG* FAIR      28  27  94 CALM      30.17F
STAFFORD*      FAIR      25  23  89 CALM      30.22F
WARRENTON      FAIR      24  23  97 CALM      30.16F
CULPEPER*      FAIR      23  21  93 CALM      30.18F
MANASSAS*      FAIR      21  21 100 N5        30.17F
LEESBURG*      FAIR      27  27 100 NW3       30.19F
WINCHESTER     FAIR      28  21  74 NW3       30.16F
FRONT ROYAL*   FAIR      25  21  86 CALM      30.16S
LURAY*         FAIR      23  23 100 CALM      30.16F
$$

VAZ048-049-060>072-079>083-071200-
CENTRAL AND SOUTH CENTRAL VIRGINIA

CITY           SKY/WX    TMP DP  RH WIND       PRES   REMARKS
RICHMOND       CLOUDY    31  28  89 N5        30.15F
CHESTERFIELD*  FAIR      30  16  55 CALM      30.17F
PETERSBURG*    FAIR      32  29  90 CALM      30.17R
HANOVER        FAIR      30  26  85 NW3       30.18F
TAPPAHANNOCK*  FAIR      31  29  92 CALM      30.18F
QUINTON*       FAIR      30  28  94 CALM      30.16F
CHARLOTTSVILLE FAIR      27  20  75 W3        30.16F
GORDONSVILLE*  FAIR      26  23  90 CALM      30.16F
ORANGE*        FAIR      28  25  86 CALM      30.18F
LOUISA*        FAIR      28  21  74 CALM      30.15S
BUMPASS*       FAIR      29  24  81 CALM      30.17S
FARMVILLE*     FAIR      29  26  88 CALM      30.15R
CREWE*         FAIR      31  27  86 CALM      30.16R
FORT PICKETT*  FAIR      31  29  91 NW5       30.16R
CHASE CITY*    FAIR      32  25  75 CALM      30.15R
CLARKSVILLE*   FAIR      34  28  80 CALM      30.15R
SOUTH HILL*    FAIR      32  27  82 CALM      30.20S
LAWRENCEVILLE* FAIR      33  29  88 CALM      30.14F
EMPORIA*       FAIR      32  28  86 NW6       30.15F
$$

VAZ088>098-071200-
SOUTHEAST VIRGINIA

CITY           SKY/WX    TMP DP  RH WIND       PRES   REMARKS
NORFOLK        FAIR      39  28  64 NE9       30.15R
VIRGINIA BEACH MOCLDY    41  28  60 NE10      30.15R
NORFOLK NAVAL  CLOUDY    38  24  57 NE8       30.17R
WEST POINT*    FAIR      30  28  91 CALM      30.19R
SALUDA*        FAIR      34  30  86 NW3       30.16S
NEWPORT NEWS   FAIR      31  29  92 N3        30.17R
LANGLEY AFB    FAIR      34  29  83 N2        30.16R
FORT EUSTIS    FAIR      34  28  80 NE2       30.15R
WILLIAMSBURG*  FAIR      34  32  93 CALM      30.17F
HR EXEC AP*    FAIR      30  28  93 CALM      30.17F
FRANKLIN*      FAIR      33  29  88 NE3       30.16F
US460-WAKEFLD  FAIR      32  28  85 CALM      30.16S
$$

VAZ020-022-025-037-045-071200-
WEST CENTRAL AND SOUTHWEST VIRGINIA

CITY           SKY/WX    TMP DP  RH WIND       PRES   REMARKS
STAUNTON*      FAIR      26  23  87 CALM      30.16F
WAYNESBORO*    FAIR      28  19  68 NW5       30.13F
HOT SPRINGS VA FAIR      30  18  61 NW7       30.04S
LYNCHBURG      FAIR      28  22  78 CALM      30.16R
DANVILLE       FAIR      32  25  75 N5        30.14F
SOUTH BOSTON*  FAIR      32  25  77 CALM      30.15F
MARTINSVILLE   FAIR      24  21  87 CALM      30.15F
ROANOKE        MOCLDY    28  20  71 SW3       30.18S
BLACKSBURG     FAIR      26  22  86 CALM      30.15F
DUBLIN*        FAIR      27  23  86 CALM      30.13F
MARION*        FAIR      27  19  71 CALM      30.14F
HILLSVILLE*    FAIR      29  19  65 NW5       30.07F
RICHLANDS*     FAIR      28  17  65 NW3       30.12F
WISE*          FAIR      32  16  51 CALM      30.14F
ABINGDON*      FAIR      26  19  76 CALM      30.15S
$$

MDZ021>025-VAZ099-100-071200-
SOUTHERN MARYLAND AND THE DELMARVA PENINSULA

CITY           SKY/WX    TMP DP  RH WIND       PRES   REMARKS
PATUXENT RIVER MOCLDY    31  26  82 CALM      30.17F
BAY BRIDGE APT   N/A     32  32 100 CALM      30.21F
LEONARDTOWN    CLOUDY    30  27  86 CALM      30.18F
DOVER          CLEAR     26  26  99 NW3       30.19S
GEORGETOWN     PTCLDY    27  24  89 CALM      30.18F
EASTON         CLEAR     28  28 100 CALM      30.24F
CAMBRIDGE      PTCLDY    28  27  93 N3        30.18F
SALISBURY      CLOUDY    26  25  96 CALM      30.17F
OCEAN CITY     PTCLDY    25  23  92 CALM      30.18F
WALLOPS ISLAND FAIR      31  25  78 N7        30.17F
ACCOMACK*      FAIR      28  25  86 NE3       30.17S
$$

NCZ012>017-030>032-071200-
NORTH CENTRAL AND EASTERN NORTH CAROLINA

CITY           SKY/WX    TMP DP  RH WIND       PRES   REMARKS
ROANOKE RAPIDS FAIR      36  30  80 N6        30.13S
RALEIGH        CLOUDY    37  25  61 N5        30.12F
ELIZABETH CITY CLOUDY    40  30  67 N10       30.13F
AHOSKIE*       LGT RAIN  36  27  69 NE7       30.12F
EDENTON*       CLOUDY    39  30  69 NE9       30.13F
CURRITUCK*     CLOUDY    42  28  58 N13G18    30.14F
KILL DEVIL HLS CLOUDY    43  33  66 NE12G17   30.10R
MANTEO         CLOUDY    43  34  71 NE16G22   30.11S
CAPE HATTERAS  LGT RAIN  44  39  82 NE15G30   30.05R
TARBORO*       LGT RAIN  37  32  84 N3        30.12F
GOLDSBORO      CLOUDY    37  37 100 N7        30.08F
WASHINGTON     LGT RAIN  35  30  82 NE3       30.08F
GREENVILLE     DRIZZLE   36  32  87 NE7       30.11F
NEW BERN       LGT RAIN  37  30  75 N15G25    30.05F
WILMINGTON     LGT RAIN  38  34  85 N21G29    29.97F
$$

VAZ048-071200-
ELSEWHERE

CITY           SKY/WX    TMP DP  RH WIND       PRES   REMARKS
HARRISBURG PA  CLEAR     24  20  84 E5        30.20R
BALTIMORE      PTCLDY    24  21  88 CALM      30.20F
ANNAPOLIS      CLOUDY    30  26  85 NW3       30.19F
ANDREWS AFB    FAIR      28  24  85 NW1       30.15F
PHILADELPHIA   PTCLDY    30  24  78 W3        30.22S
HENDERSON NC   CLOUDY    34  28  76 N5        30.12F
GREENSBORO     CLOUDY    34  19  54 N5        30.10F
ROCKY MOUNT    LGT RAIN  36  32  85 N9        30.11F
$$

VAZ100-071200-
MARINE

STATION/POSITION TIME  TEMP    WIND        PRES    WAVE   SWELL
                       AIR SEA DIR/SP/G            HT/PER HT/PER
                 (UTC) (F)     (DEG/KT/KT) (MB)    (FT/S) (FT/S)
BRANDYWINE LGT   1006   36     240/  4/  5 1023.4R
CAPE MAY NJ      1006   32 42  100/  1/  1 1023.2R
LEWES DE         1006   31 42  230/  3/  4 1023.5R
15NM E FENWICK I 1050   40 45              1022.1F   2/10
OCEAN-CITY-INLET 1006   34 41  360/  5/  6 1022.1F
WACHAPREAGUE VA  1000   32 43  330/  2/  3 1022.3F
GOOSES REEF MD   1100   36 39  320/  6/  8 1022.6F   0
COVE POINT MD    1000   35     230/  3/  4 1023.8S
SOLOMONS ISLAND  1000   33 41  310/  2/  3   N/A
BISHOPS HEAD MD  1006   38 41   CALM  /  3 1021.9F
POTOMAC MD       1100   36 40  350/  4/  4 1021.0F   0
CAMBRIDGE MD     1000   30 40  130/  1/  2 1022.8R
LEWISETTA VA     1000   33 42  320/  3/  3 1022.6F
RAPPAHANNOCK LGT 1000           30/  8/  8 1022.1F
STINGRAY PT      1100   39 42   20/  8/ 10 1021.3F
YORK RVR RNG VA  1000   38      40/ 10/ 12 1020.3F
YORKTOWN VA      1000   35 43  360/  5/  7 1021.0F
JAMESTOWN VA     1100   34 44   10/  2/  4   N/A     0
DOMINION TERM VA 1000   36      30/  3/  6 1021.0F
KIPTOPEKE VA     1000      42   50/  5/  7   N/A
CHES BAY BRIDGE  1000   39 43   20/ 14/ 16 1020.0F
CAPE HENRY VA    1000   40      30/ 16/ 18   N/A
CHESAPEAKE LGHT  1000   41      40/ 20/ 22 1021.0F
WILLOUBY STN VA  1000   40      40/ 13/ 15 1027.5S
CAPE HENRY BUOY  1028      46                N/A     4/11   2/11
1ST LANDING BUOY 1100      42                N/A     2/ 3
CAPE CHARLES BUO 1026      45                N/A     3/11   3/11
OFFSHORE WE BUOY 1021      49                N/A     4/10   3/10
64NM E OF VA BCH 1050   48 54   30/ 21/ 25 1018.6F   5/10   3/10
DUCK PIER NC     1000   43 45   20/ 22/ 24 1019.3F
44100 DUCK FRF   1024      47                N/A     5/10   2/11
44056 DUCK FRF   1011      44                N/A     4/10   2/11
OREGON INLET NC  1000   44 46   10/ 15/ 22 1018.8F
HATTERAS NC      1000   45 48   10/ 30/ 35 1016.4F
DIAMOND SHLS NC  1050   53 71   20/ 31/ 39 1015.0R   9/ 7   3/11
$$




USA.gov is the U.S. government's official web portal to all federal, state and local government web resources and services.